User: anonymous   Login
Location: Unspecified
(0.0000°N, 0.0000°E)
Time: 10:10:50
(UTC+00:00)
Language:

PAYLOAD F - Orbit

View from above orbital plane
View from above orbital plane
View from above satellite
View from above satellite

Ground track
Ground track

The orbit data is extracted from the following two-line orbital elements,

1 27060U 01058F   18113.87663394 +.00000020 +00000-0 +52233-4 0  9990
2 27060 082.5372 307.3183 0007674 211.1752 148.8883 12.62996235752438
Epoch (UTC): 23 April 2018 21:02:21
Eccentricity: 0.0007674
inclination: 82.5372°
perigee height: 1404 km
apogee height: 1416 km
right ascension of ascending node: 307.3183°
argument of perigee: 211.1752°
revolutions per day: 12.62996235
mean anomaly at epoch: 148.8883°
orbit number at epoch: 75243

The dashed part of the orbit path shows where the satellite is in the earth's shadow,  

DLR